This demonstration page uses our WeatherBlox Daily Observations layout. Learn more.

Left ArrowRight Arrow

39.51506, -84.39828

Hourly Observations for June 24, 2021

Temp ( °F °C ) Dew Point ( °F °C ) Humidity (%) Winds ( mph kmh ) Pressure ( in mb ) Visibility ( mi km ) Precip ( " mm )
12:15 am 00:15 Clear 58 14.6 57 13.9 96 96 N N/A 30.17 1022 10 16 N/A
12:35 am 00:35 Clear 58 14.2 57 13.7 97 97 N N/A 30.17 1022 10 16 N/A
12:55 am 00:55 Clear 58 14.2 57 13.9 98 98 N N/A 30.17 1022 10 16 N/A
1:15 am 01:15 Clear 57 13.9 56 13.6 98 98 N N/A 30.17 1022 10 16 N/A
1:35 am 01:35 Clear 57 14 55 13 94 94 N N/A 30.18 1022 10 16 N/A
1:55 am 01:55 Clear 56 13.5 56 13.3 99 99 N N/A 30.18 1022 10 16 N/A
2:15 am 02:15 Clear 56 13.1 56 13.1 100 100 N N/A 30.18 1022 10 16 N/A
2:35 am 02:35 Clear 56 13.1 55 13 99 99 N N/A 30.18 1022 10 16 N/A
2:55 am 02:55 Clear 55 13 55 13 100 100 N N/A 30.18 1022 10 16 N/A
3:15 am 03:15 Clear 55 12.8 55 12.7 99 99 NNE 3 6 30.18 1022 10 16 N/A
3:35 am 03:35 Clear 55 12.9 55 12.8 99 99 N N/A 30.18 1022 10 16 N/A
3:55 am 03:55 Clear 54 12 54 12 100 100 N N/A 30.17 1022 10 16 N/A
4:15 am 04:15 Clear 54 12 N/A N/A N N/A 30.17 1022 10 16 N/A
4:35 am 04:35 Clear 55 13 N/A N/A N N/A 30.17 1022 10 16 N/A
4:55 am 04:55 Clear 54 12 N/A N/A N N/A 30.17 1022 10 16 N/A
5:15 am 05:15 Clear 54 12 N/A N/A NW 3 6 30.17 1022 10 16 N/A
5:35 am 05:35 Clear 54 12 N/A N/A N N/A 30.17 1022 10 16 N/A
5:55 am 05:55 Clear 54 12 N/A N/A NE 3 6 30.17 1022 10 16 N/A
6:15 am 06:15 Sunny 54 12 N/A N/A N N/A 30.16 1021 10 16 N/A
6:35 am 06:35 Sunny 54 12 N/A N/A W 3 6 30.17 1022 7 11 N/A
6:55 am 06:55 Sunny 55 13 N/A N/A N N/A 30.17 1022 10 16 N/A
7:15 am 07:15 Sunny 57 14 N/A N/A N N/A 30.18 1022 10 16 N/A
7:35 am 07:35 Sunny 60 15.3 59 15 98 98 N N/A 30.17 1022 10 16 N/A
7:55 am 07:55 Sunny 63 17.3 58 14.5 84 84 S 3 6 30.16 1021 10 16 N/A
8:15 am 08:15 Sunny 65 18.6 56 13.3 71 71 N N/A 30.15 1021 10 16 N/A
8:35 am 08:35 Sunny 67 19.4 56 13.6 69 69 SW 3 6 30.16 1021 10 16 N/A
8:55 am 08:55 Sunny 67 19.7 57 13.8 69 69 SW 3 6 30.17 1022 10 16 N/A
9:15 am 09:15 Sunny 70 21 58 14.2 65 65 SW 6 9 30.17 1022 10 16 N/A
9:35 am 09:35 Sunny 72 22 58 14.4 62 62 SSW 9 15 30.17 1022 10 16 N/A
9:55 am 09:55 Sunny 73 22.6 58 14.3 60 60 S 6 9 30.17 1022 10 16 N/A
10:15 am 10:15 Sunny 74 23.3 59 14.8 59 59 SW 6 9 30.17 1022 10 16 N/A
10:35 am 10:35 Sunny 76 24.3 60 15.8 59 59 SSW 7 11 30.15 1021 10 16 N/A
10:55 am 10:55 Sunny 77 24.8 61 15.9 58 58 SSW 7 11 30.14 1021 10 16 N/A
11:15 am 11:15 Sunny 78 25.6 61 16.2 56 56 S 8 13 30.13 1020 10 16 N/A
11:35 am 11:35 Sunny 80 26.6 61 16.1 53 53 SSW 12 19 30.13 1020 10 16 N/A
11:55 am 11:55 Sunny 80 26.6 59 15.2 50 50 S 15 24 30.13 1020 10 16 N/A
12:15 pm 12:15 Sunny 81 27 61 15.9 51 51 S 12 19 30.13 1020 10 16 N/A
12:35 pm 12:35 Sunny 81 27.4 62 16.4 51 51 SSW 10 17 30.12 1020 10 16 N/A
12:55 pm 12:55 Sunny 82 27.6 62 16.7 51 51 SW 13 20 30.12 1020 10 16 N/A
1:15 pm 13:15 Sunny 82 27.7 63 17.1 52 52 S 13 20 30.11 1020 10 16 N/A
1:35 pm 13:35 Sunny 82 27.7 63 17.4 53 53 S 15 24 30.11 1020 10 16 N/A
1:55 pm 13:55 Sunny 83 28.1 64 17.5 53 53 S 14 22 30.10 1019 10 16 N/A
2:15 pm 14:15 Sunny 83 28.3 63 17.4 52 52 SSW 15 24 30.10 1019 10 16 N/A
2:35 pm 14:35 Sunny 83 28.5 63 17.3 51 51 SSW 15 24 30.10 1019 10 16 N/A
2:55 pm 14:55 Sunny 84 28.8 64 17.5 50 50 SW 14 22 30.08 1019 10 16 N/A
3:15 pm 15:15 Sunny 84 28.9 63 17.2 49 49 SSW 17 28 30.08 1019 10 16 N/A
3:35 pm 15:35 Sunny 84 29.1 63 17.3 49 49 SSW 17 28 30.07 1018 10 16 N/A
3:55 pm 15:55 Partly Cloudy 83 28.6 64 17.6 51 51 SSW 15 24 30.07 1018 10 16 N/A
4:15 pm 16:15 Partly Cloudy 84 28.9 63 17.4 50 50 SW 17 28 30.07 1018 10 16 N/A
4:35 pm 16:35 Partly Cloudy 83 28.4 64 17.8 53 53 SW 15 24 30.09 1019 10 16 N/A
4:55 pm 16:55 Partly Cloudy 83 28.5 64 17.5 51 51 SSW 15 24 30.08 1018 10 16 N/A
5:15 pm 17:15 Partly Cloudy 83 28.2 64 17.8 53 53 SW 14 22 30.08 1018 10 16 N/A
5:35 pm 17:35 Partly Cloudy 83 28.1 64 17.7 53 53 SSW 15 24 30.08 1018 10 16 N/A
5:55 pm 17:55 Sunny 82 28 64 17.6 53 53 SSW 12 19 30.08 1018 10 16 N/A
6:15 pm 18:15 Sunny 82 27.9 64 17.7 54 54 SSW 10 17 30.07 1018 10 16 N/A
6:35 pm 18:35 Sunny 81 27.4 65 18.1 57 57 SW 12 19 30.07 1018 10 16 N/A
6:55 pm 18:55 Sunny 81 27 65 18.6 60 60 SW 10 17 30.07 1018 10 16 N/A
7:15 pm 19:15 Sunny 81 27 66 18.8 61 61 SW 7 11 30.07 1018 10 16 N/A
7:35 pm 19:35 Sunny 80 26.8 67 19.2 63 63 SW 6 9 30.07 1018 10 16 N/A
7:55 pm 19:55 Sunny 80 26.5 67 19.3 65 65 WSW 6 9 30.07 1018 10 16 N/A
8:15 pm 20:15 Sunny 78 25.7 67 19.5 69 69 WSW 5 7 30.08 1019 10 16 N/A
8:35 pm 20:35 Sunny 77 24.8 69 20.3 76 76 WSW 3 6 30.07 1018 10 16 N/A
8:55 pm 20:55 Partly Cloudy 75 24 68 20.2 79 79 N N/A 30.08 1018 10 16 N/A
9:15 pm 21:15 Partly Cloudy 73 22.5 70 21 91 91 N N/A 30.08 1019 10 16 N/A
9:35 pm 21:35 Clear 71 21.9 70 21 95 95 N N/A 30.08 1019 10 16 N/A
9:55 pm 21:55 Clear 69 20.5 68 20.2 98 98 WNW 3 6 30.10 1019 10 16 N/A
10:15 pm 22:15 Clear 68 20 68 20 100 100 N N/A 30.10 1019 10 16 N/A
10:35 pm 22:35 Clear 68 20.1 68 19.9 99 99 N N/A 30.09 1019 10 16 N/A
10:55 pm 22:55 Clear 68 19.9 68 19.8 99 99 N N/A 30.09 1019 10 16 N/A
11:15 pm 23:15 Clear 67 19.6 67 19.6 100 100 N N/A 30.08 1018 10 16 N/A
11:35 pm 23:35 Clear 66 19 N/A N/A S 5 7 30.07 1018 10 16 N/A
11:55 pm 23:55 Clear 75 23.7 66 19.1 76 76 SSE 8 13 30.06 1018 10 16 N/A

Powered by AerisWeather